Regional Weather Roundup
Issued by NWS Albany, NY

Home | Current Version | Previous Version | Text Only | Print | Product List | Glossary On
Versions: 1 2 3 4 5 6 7 8 9 10 11 12 13 14 15 16 17 18 19 20 21 22 23 24 25 26 27 28 29 30 31 32 33 34 35 36 37 38 39 40 41 42 43 44 45 46 47 48 49 50
950
ASUS41 KALY 161410
RWRALY

NEW YORK STATE HOURLY WEATHER ROUNDUP
NATIONAL WEATHER SERVICE ALBANY NY
900 AM EST SAT DEC 16 2017

NOTE: "FAIR" INDICATES FEW OR NO CLOUDS BELOW 12,000 FEET WITH NO
SIGNIFICANT WEATHER AND/OR NO OBSTRUCTIONS TO VISIBILITY.

NYZ032-033-038>043-046>054-057>066-NYZ062>081-082-084-161500-
EAST


CITY           SKY/WX    TMP DP  RH WIND       PRES   REMARKS
ALBANY         MOSUNNY   20  14  77 CALM      29.93R
GLENS FALLS    SUNNY      4   2  91 CALM      29.89R
POUGHKEEPSIE   MOSUNNY   24  14  65 SW5       30.00R WCI  18
NEWBURGH       PTSUNNY   23  18  80 W9        30.00R WCI  13
MONTGOMERY     CLOUDY    21  15  78 SW8       29.99R WCI  11
WHITE PLAINS   SUNNY     26  15  63 SW8       30.01R WCI  18
ISLIP          PTSUNNY   28  18  66 W15       30.04R WCI  16
NEW YORK CITY  PTSUNNY   30  17  58 SW16G25   30.06R WCI  19
CENTRAL PARK   PTSUNNY   28  17  63 W10G25    30.07R WCI  19
$$

NYZ005>009-017-018-044>046-055-056-161500-
CENTRAL


CITY           SKY/WX    TMP DP  RH WIND       PRES   REMARKS
FULTON         HVY SNOW  23  18  81 W10       29.90R VSB 1/4 WCI  12
SYRACUSE       CLOUDY    25  15  66 SW18G28   29.89S WCI  11
ROME           LGT SNOW  23  13  65 W10       29.92R WCI  12
ELMIRA         LGT SNOW  24  21  88 CALM      29.92S FOG
BINGHAMTON     LGT SNOW  20  16  84 SW3       29.87S FOG
MONTICELLO     FLURRIES  20  14  77 W7        29.93R WCI  11
$$

NYZ026>034-041>043-087-161500-
NORTH


CITY           SKY/WX    TMP DP  RH WIND       PRES   REMARKS
WATERTOWN      MOSUNNY   24  14  65 W14       29.89R WCI  12
FORT DRUM      NOT AVBL
OGDENSBURG     FAIR      24  20  84 W5        29.86R WCI  18
MASSENA        CLOUDY    23  20  88 SW7       29.86R WCI  15
SARANAC LAKE   LGT SNOW  19  16  88 MISG      29.73S FOG
PLATTSBURGH    SUNNY     16  12  84 CALM      29.83R
$$

NYZ001>004-010>016-019>021-085-161500-
WEST


CITY           SKY/WX    TMP DP  RH WIND       PRES   REMARKS
NIAGARA FALLS  CLOUDY    26  16  65 W13       29.91S WCI  15
BUFFALO        CLOUDY    25  17  72 W7        29.92R WCI  17
DUNKIRK        SNOW      30  29  96 NW10      29.93S VSB 1/4 WCI  21
JAMESTOWN      LGT SNOW  26  24  92 SW16      29.87S FOG     WCI  14
WELLSVILLE     SNOW      26  20  77 W9        29.85R VSB 1/2 WCI  17
ROCHESTER      CLOUDY    25  16  68 SW8       29.92R WCI  16
PENN YAN       SNOW      24  19  81 SE6       29.92R VSB 1/2 WCI  17
$$

             KEY
       WCI = WIND CHILL INDEX
       VSB = VISIBILITY
       HX  = HEAT INDEX
$$




USA.gov is the U.S. government's official web portal to all federal, state and local government web resources and services.